Zurück zum Katalog

DELTA 1 DEB

AktivLEO
NORAD 9568·DEBRIS·🇺🇸 United States

Gestartet Nov 6, 1973 von Vandenberg Space Force Base

Loading…

Nächste Überflüge (nächste 24 Stunden)

TLE

AktuellSource: Space-Track

Epoche: Sep 13, 2026, 11:15 UTC

1 09568U 73086FW  26256.46923999  .00000170  00000-0  19248-2 0  9998
2 09568 101.4726  86.4970 0349433  25.7239   3.9597 12.08560634315657

Verfolge DELTA 1 DEB in Echtzeit mit AllMySat

Download on the App Store